EW2458 Weather Reports


Display with metric or nautical units.
time (UTC)temp
F
wind
direction
speed
MPH
gust
MPH
rain 1hr
in
rain 24hr
in
rain mn
in
humidity
%
barometer
mb
20180720221438 89 212 1.0 10.0 0.00 0.00 0.00 64 1009.2
20180720215934 89 153 0.0 12.0 0.00 0.00 0.00 66 1009.2
20180720214434 89 200 0.0 14.0 0.00 0.00 0.00 65 1009.3
20180720212932 89 210 0.0 10.0 0.00 0.00 0.00 66 1009.3
20180720211431 88 255 0.0 12.0 0.00 0.00 0.00 66 1009.6
20180720205929 89 262 5.0 11.0 0.00 0.00 0.00 66 1009.8
20180720204427 89 146 0.0 4.0 0.00 0.00 0.00 66 1009.7
20180720202925 89 146 1.0 8.0 0.00 0.00 0.00 66 1010.0
20180720201425 89 224 0.0 9.0 0.00 0.00 0.00 66 1009.9
20180720195922 88 146 2.0 12.0 0.00 0.00 0.00 66 1010.0
20180720194420 89 150 0.0 10.0 0.00 0.00 0.00 66 1010.2
20180720192919 88 220 3.0 10.0 0.00 0.00 0.00 66 1010.4
20180720191416 89 167 4.0 11.0 0.00 0.00 0.00 66 1010.7
20180720185912 89 161 2.0 8.0 0.00 0.00 0.00 66 1011.1
20180720184411 88 211 1.0 13.0 0.00 0.00 0.00 66 1011.4
20180720182910 88 231 0.0 7.0 0.00 0.00 0.00 66 1011.6
20180720181407 87 256 0.0 7.0 0.00 0.00 0.00 67 1011.8
20180720180102 87 150 0.0 9.0 0.00 0.00 0.00 68 1012.0
20180720174401 87 187 0.0 11.0 0.00 0.00 0.00 69 1012.4
20180720172859 86 186 1.0 10.0 0.00 0.00 0.00 70 1012.7
20180720171402 86 229 0.0 5.0 0.00 0.00 0.00 69 1012.8
20180720165856 86 143 0.0 1.0 0.00 0.00 0.00 70 1012.9
20180720164354 85 257 0.0 11.0 0.00 0.00 0.00 71 1012.8
20180720162853 85 218 0.0 6.0 0.00 0.00 0.00 73 1013.1
20180720161351 84 191 5.0 10.0 0.00 0.00 0.00 72 1013.0
20180720155851 84 225 0.0 10.0 0.00 0.00 0.00 72 1013.2
20180720154348 83 184 1.0 8.0 0.00 0.00 0.00 72 1013.0
20180720152851 82 217 0.0 9.0 0.00 0.00 0.00 75 1013.0
20180720151349 82 167 0.0 5.0 0.00 0.00 0.00 75 1013.0
20180720145848 83 146 0.0 6.0 0.00 0.00 0.00 77 1013.2
20180720144345 82 120 1.0 7.0 0.00 0.00 0.00 76 1013.2
20180720142841 81 136 0.0 13.0 0.00 0.00 0.00 79 1013.2
20180720141339 81 170 4.0 13.0 0.00 0.00 0.00 78 1013.3
20180720135837 80 156 0.0 9.0 0.00 0.00 0.00 80 1013.4
20180720134335 80 171 0.0 6.0 0.00 0.00 0.00 81 1013.5
20180720132834 80 125 1.0 4.0 0.00 0.00 0.00 81 1013.5
20180720131335 79 168 1.0 5.0 0.00 0.00 0.00 81 1013.6
20180720125829 78 150 0.0 11.0 0.00 0.00 0.00 84 1013.5
20180720124326 78 77 0.0 0.0 0.00 0.00 0.00 85 1013.3
20180720122823 76 28 0.0 0.0 0.00 0.00 0.00 88 1013.3
20180720121319 75 32 0.0 0.0 0.00 0.00 0.00 89 1013.2
20180720115815 72 32 0.0 0.0 0.00 0.00 0.00 93 1013.1
20180720114319 72 32 0.0 0.0 0.00 0.00 0.00 93 1012.9
20180720112814 71 32 0.0 0.0 0.00 0.00 0.00 96 1012.8
20180720111311 69 32 0.0 0.0 0.00 0.00 0.00 97 1012.6
20180720105811 69 32 0.0 0.0 0.00 0.00 0.00 97 1012.4
20180720104409 69 348 0.0 0.0 0.00 0.00 0.00 97 1012.2
20180720102810 69 347 0.0 0.0 0.00 0.00 0.00 96 1012.2
20180720101307 70 347 0.0 0.0 0.00 0.00 0.00 96 1012.2
20180720095804 70 286 0.0 0.0 0.00 0.00 0.00 96 1012.1
20180720094305 70 288 0.0 0.0 0.00 0.00 0.00 96 1012.0
20180720092804 70 285 0.0 0.0 0.00 0.00 0.00 96 1012.0
20180720091302 70 89 0.0 0.0 0.00 0.00 0.00 95 1011.9
20180720085801 70 89 0.0 0.0 0.00 0.00 0.00 96 1011.9
20180720084303 70 65 0.0 0.0 0.00 0.00 0.00 96 1011.7
20180720082759 70 1 0.0 0.0 0.00 0.00 0.00 96 1011.9
20180720081258 70 2 0.0 0.0 0.00 0.00 0.00 95 1011.8
20180720075757 70 1 0.0 0.0 0.00 0.00 0.00 95 1011.8
20180720074257 71 2 0.0 0.0 0.00 0.00 0.00 94 1011.8
20180720072757 71 4 0.0 0.0 0.00 0.00 0.00 94 1011.7
20180720071257 71 87 0.0 0.0 0.00 0.00 0.00 94 1011.7
20180720065756 71 103 0.0 0.0 0.00 0.00 0.00 94 1011.7
20180720064254 71 297 0.0 0.0 0.00 0.00 0.00 93 1011.8
20180720062751 71 96 0.0 0.0 0.00 0.00 0.00 92 1011.5
20180720061249 72 326 0.0 0.0 0.00 0.00 0.00 92 1011.8
20180720055748 72 326 0.0 0.0 0.00 0.00 0.00 92 1011.8
20180720054246 72 310 0.0 0.0 0.00 0.00 0.00 92 1012.1
20180720052743 72 82 0.0 0.0 0.00 0.00 0.00 90 1012.2
20180720051241 73 82 0.0 0.0 0.00 0.00 0.00 89 1012.3
20180720045744 73 102 0.0 0.0 0.00 0.00 0.00 89 1012.3
20180720044239 73 97 0.0 0.0 0.00 0.00 0.00 90 1012.5
20180720042738 72 79 0.0 0.0 0.00 0.00 0.00 90 1012.4
20180720041239 72 91 0.0 0.0 0.00 0.00 0.00 90 1012.4
20180720035738 72 299 0.0 0.0 0.00 0.00 0.00 92 1012.5
20180720034237 72 103 0.0 0.0 0.00 0.00 0.00 91 1012.3
20180720032838 72 108 0.0 0.0 0.00 0.00 0.00 91 1012.1
20180720031236 72 135 0.0 0.0 0.00 0.00 0.00 92 1012.1
20180720025737 72 127 0.0 0.0 0.00 0.00 0.00 92 1012.2
20180720024236 72 140 0.0 0.0 0.00 0.00 0.00 91 1012.3
20180720022736 73 125 0.0 0.0 0.00 0.00 0.00 91 1012.2
20180720021234 74 139 0.0 0.0 0.00 0.00 0.00 90 1012.0
20180720015736 74 129 0.0 0.0 0.00 0.00 0.00 88 1011.7
20180720014233 75 125 0.0 0.0 0.00 0.00 0.00 86 1011.1
20180720012733 76 141 0.0 0.0 0.00 0.00 0.00 86 1010.9
20180720011232 77 131 0.0 0.0 0.00 0.00 0.00 85 1010.8
20180720005732 77 142 0.0 0.0 0.00 0.00 0.00 85 1010.8
20180720004232 79 120 0.0 1.0 0.00 0.00 0.00 80 1010.6
20180720002731 81 117 0.0 1.0 0.00 0.00 0.00 77 1010.7
20180720001229 84 117 0.0 0.0 0.00 0.00 0.00 72 1010.7
20180719235730 86 111 0.0 0.0 0.00 0.00 0.00 68 1010.6
20180719234229 88 128 0.0 0.0 0.00 0.00 0.00 64 1010.5
20180719232727 90 140 0.0 0.0 0.00 0.00 0.00 52 1010.7
20180719231228 90 123 0.0 0.0 0.00 0.00 0.00 49 1010.6
20180719225727 90 136 0.0 0.0 0.00 0.00 0.00 49 1010.6
20180719224228 90 78 0.0 1.0 0.00 0.00 0.00 47 1010.7
20180719222723 89 75 0.0 1.0 0.00 0.00 0.00 51 1010.8